Tracking 30923 objects as of 1-Jul-2025
HD Live streaming from Space Station
objects crossing your sky now

USA 447

Track USA 447 now!
10-day predictions


NORAD ID: 62346
Int'l Code: 2024-243G
Perigee: 581.4 km
Apogee: 587.0 km
Inclination: 70.0 °
Period: 96.2 minutes
Semi major axis: 6955 km
RCS: Unknown
Launch date: December 17, 2024
Source: United States (US)
Launch site: AIR FORCE WESTERN TEST RANGE (AFWTR)
Your satellite tracking list
ATLAS 2A CENTAUR R/B
Track 1 satellite(s)




NASA's NSSDC Master Catalog

Two Line Element Set (TLE):
1 62346U 24243G   25169.97456193 0.00000000  00000-0  00000-0 0    06
2 62346  70.0000 115.1739 0004000 153.9990 206.0010 14.96715656    06
Source of the keplerian elements: McCants